FW7618 Weather Reports


time (UTC)temp
C
wind
direction
speed
KPH
gust
KPH
rain 1hr
cm
rain 24hr
cm
rain mn
cm
humidity
%
barometer
mb
20260902233053 32 0 0.0 3.2 0.00 0.00 0.00 58 1018.1
20260902231551 33 0 3.2 6.4 0.00 0.00 0.00 57 1018.3
20260902230046 33 0 1.6 6.4 0.00 0.00 0.00 56 1018.3
20260902224554 33 99 0.0 4.8 0.00 0.00 0.00 56 1018.3
20260902223050 33 0 0.0 4.8 0.00 0.00 0.00 55 1018.4
20260902221546 33 96 4.8 9.7 0.00 0.00 0.00 54 1018.5
20260902214554 34 78 1.6 6.4 0.00 0.00 0.00 54 1018.6
20260902213046 34 67 0.0 6.4 0.00 0.00 0.00 53 1018.5
20260902211553 34 93 3.2 6.4 0.00 0.00 0.00 53 1018.5
20260902210113 34 121 4.8 9.7 0.00 0.00 0.00 53 1018.6
20260902204554 34 67 1.6 9.7 0.00 0.00 0.00 52 1018.7
20260902203045 34 79 3.2 9.7 0.00 0.00 0.00 51 1018.8
20260902201546 34 82 1.6 9.7 0.00 0.00 0.00 51 1018.9
20260902200046 35 15 1.6 6.4 0.00 0.00 0.00 54 1018.9
20260902194544 35 67 3.2 11.3 0.00 0.00 0.00 50 1019.2
20260902193054 35 121 1.6 8.0 0.00 0.00 0.00 50 1019.4
20260902191600 35 95 3.2 9.7 0.00 0.00 0.00 51 1019.6
20260902190049 35 0 0.0 8.0 0.00 0.00 0.00 50 1019.7
20260902184624 35 90 1.6 11.3 0.00 0.00 0.00 49 1019.9
20260902183047 35 17 1.6 9.7 0.00 0.00 0.00 52 1019.9
20260902181603 35 0 1.6 9.7 0.00 0.00 0.00 55 1019.9
20260902180110 34 86 1.6 4.8 0.00 0.00 0.00 56 1020.0
20260902174554 33 86 3.2 11.3 0.00 0.00 0.00 55 1020.2
20260902173056 34 89 4.8 9.7 0.00 0.00 0.00 54 1020.5
20260902171555 33 92 3.2 11.3 0.00 0.00 0.00 55 1020.5
20260902170051 33 86 3.2 6.4 0.00 0.00 0.00 56 1020.7
20260902164548 33 101 4.8 11.3 0.00 0.00 0.00 56 1020.6
20260902163043 33 103 0.0 6.4 0.00 0.00 0.00 57 1020.7
20260902161542 33 52 0.0 9.7 0.00 0.00 0.00 59 1020.8
20260902160051 32 64 0.0 4.8 0.00 0.00 0.00 61 1020.9
20260902154544 32 0 0.0 6.4 0.00 0.00 0.00 62 1021.0
20260902153052 31 105 3.2 6.4 0.00 0.00 0.00 64 1021.0
20260902151550 31 98 3.2 6.4 0.00 0.00 0.00 65 1021.1
20260902150044 30 102 0.0 4.8 0.00 0.00 0.00 68 1021.3
20260902144606 30 102 0.0 6.4 0.00 0.00 0.00 70 1021.2
20260902143053 28 88 1.6 4.8 0.00 0.00 0.00 72 1021.2
20260902141545 28 101 1.6 4.8 0.00 0.00 0.00 74 1021.3
20260902140055 27 84 0.0 4.8 0.00 0.00 0.00 76 1021.2
20260902134555 27 82 3.2 4.8 0.00 0.00 0.00 77 1021.1
20260902133045 26 355 0.0 3.2 0.00 0.00 0.00 79 1021.0
20260902131542 26 0 0.0 0.0 0.00 0.00 0.00 81 1021.0
20260902130053 25 0 0.0 0.0 0.00 0.00 0.00 82 1021.1
20260902124545 25 0 0.0 0.0 0.00 0.00 0.00 84 1021.0
20260902123046 24 0 0.0 0.0 0.00 0.00 0.00 85 1020.9
20260902121552 24 0 0.0 0.0 0.00 0.00 0.00 85 1020.8
20260902120051 24 0 0.0 3.2 0.00 0.00 0.00 86 1020.7
20260902114548 23 0 0.0 0.0 0.00 0.00 0.00 86 1020.6
20260902113054 23 0 0.0 1.6 0.00 0.00 0.00 87 1020.5
20260902111549 23 0 0.0 0.0 0.00 0.00 0.00 87 1020.3
20260902110044 23 0 0.0 0.0 0.00 0.00 0.00 87 1020.3
20260902104543 23 0 0.0 0.0 0.00 0.00 0.00 87 1020.4
20260902103049 23 0 0.0 0.0 0.00 0.00 0.00 87 1020.4
20260902101545 23 0 0.0 0.0 0.00 0.00 0.00 86 1020.2
20260902100104 23 0 0.0 0.0 0.00 0.00 0.00 87 1020.1
20260902094542 23 0 0.0 0.0 0.00 0.00 0.00 87 1020.3
20260902093047 23 0 0.0 0.0 0.00 0.00 0.00 87 1020.2
20260902091550 23 0 0.0 0.0 0.00 0.00 0.00 87 1020.2
20260902090052 23 0 0.0 0.0 0.00 0.00 0.00 86 1020.0
20260902084554 23 0 0.0 0.0 0.00 0.00 0.00 86 1019.7
20260902083054 24 0 0.0 0.0 0.00 0.00 0.00 86 1019.7
20260902081545 24 0 0.0 0.0 0.00 0.00 0.00 85 1019.5
20260902080057 24 0 0.0 0.0 0.00 0.00 0.00 85 1019.5
20260902074542 24 0 0.0 0.0 0.00 0.00 0.00 85 1019.4
20260902073048 25 0 0.0 0.0 0.00 0.00 0.00 84 1019.5
20260902071544 25 0 0.0 0.0 0.00 0.00 0.00 82 1019.5
20260902070044 25 0 0.0 0.0 0.00 0.00 0.00 80 1019.4
20260902064605 26 0 0.0 0.0 0.00 0.00 0.00 79 1019.4
20260902063046 26 0 0.0 0.0 0.00 0.00 0.00 78 1019.3
20260902061552 26 0 0.0 0.0 0.00 0.00 0.00 78 1019.5
20260902060052 26 0 0.0 0.0 0.00 0.00 0.00 77 1019.5
20260902054547 26 0 0.0 0.0 0.00 0.00 0.00 77 1019.5
20260902053044 26 0 0.0 3.2 0.00 0.00 0.00 76 1019.5
20260902051546 26 0 0.0 0.0 0.00 0.00 0.00 76 1019.6
20260902050049 27 0 0.0 0.0 0.00 0.00 0.00 76 1019.6
20260902044546 27 0 0.0 0.0 0.00 0.00 0.00 75 1019.4
20260902043043 27 0 0.0 0.0 0.00 0.00 0.00 74 1019.4
20260902041553 27 0 0.0 1.6 0.00 0.00 0.00 74 1019.5
20260902040050 27 0 0.0 0.0 0.00 0.00 0.00 74 1019.6
20260902034556 27 0 0.0 0.0 0.00 0.00 0.00 74 1019.6
20260902033058 28 0 0.0 0.0 0.00 0.00 0.00 73 1019.6
20260902031551 28 0 0.0 0.0 0.00 0.00 0.00 72 1019.6
20260902030049 28 0 0.0 1.6 0.00 0.00 0.00 71 1019.4
20260902024547 28 355 0.0 6.4 0.00 0.00 0.00 70 1019.4
20260902023043 28 0 0.0 3.2 0.00 0.00 0.00 71 1019.3
20260902021542 28 0 0.0 4.8 0.00 0.00 0.00 72 1019.4
20260902020050 28 0 0.0 0.0 0.00 0.00 0.00 72 1019.4
20260902014546 28 0 0.0 0.0 0.00 0.00 0.00 73 1019.4
20260902013044 28 0 0.0 0.0 0.00 0.00 0.00 71 1019.4
20260902011545 28 0 0.0 0.0 0.00 0.00 0.00 70 1019.2
20260902010043 29 0 0.0 0.0 0.00 0.00 0.00 68 1019.0
20260902004553 30 0 0.0 0.0 0.00 0.00 0.00 66 1018.8
20260902003050 30 0 0.0 0.0 0.00 0.00 0.00 64 1018.9
20260902001546 31 0 0.0 0.0 0.00 0.00 0.00 61 1018.9
20260902000043 31 0 0.0 0.0 0.00 0.00 0.00 59 1018.9
20260901234556 32 0 0.0 0.0 0.00 0.00 0.00 57 1018.9